Back to catalog

DELTA 1 DEB

AlivePO
NORAD 21319·DEBRIS·🇺🇸 United States

Launched Jun 12, 1975 from Vandenberg Space Force Base

Loading…

Next Passes (next 24 hours)

TLE

FreshSource: Space-Track

Epoch: Sep 14, 2026, 09:14 UTC

1 21319U 75052AM  26257.38501936  .00000154  00000-0  50655-3 0  9996
2 21319  99.6630  57.1728 0234447 354.0326  33.9715 13.06955379681863

Track DELTA 1 DEB in real time with AllMySat

Download on the App Store